DW6920 Weather Reports


time (UTC)temp
C
wind
direction
speed
KPH
gust
KPH
rain 1hr
cm
rain 24hr
cm
rain mn
cm
humidity
%
barometer
mb
20260506201508 11 170 0.0 0.0 0.03 0.05 0.05 91 1008.7
20260506200004 11 203 0.0 0.0 0.05 0.05 0.05 91 1008.8
20260506194545 11 207 0.0 0.0 0.05 0.05 0.05 90 1008.9
20260506193045 11 172 0.0 0.0 0.03 0.03 0.03 89 1009.1
20260506191524 11 187 0.0 0.0 0.03 0.03 0.03 88 1009.1
20260506190022 11 211 0.0 0.0 0.00 0.00 0.00 88 1009.2
20260506184503 11 197 0.0 0.0 0.00 0.00 0.00 88 1009.4
20260506183003 11 254 0.0 0.0 0.00 0.00 0.00 88 1009.6
20260506181543 11 207 0.0 0.0 0.00 0.00 0.00 88 1009.7
20260506180049 11 164 0.0 17.7 0.00 0.00 0.00 88 1009.6
20260506174526 11 177 0.0 19.3 0.00 0.00 0.00 88 1009.8
20260506173020 11 181 0.0 4.8 0.00 0.00 0.00 87 1010.0
20260506171501 12 185 0.0 0.0 0.00 0.00 0.00 87 1010.3
20260506170100 12 177 0.0 0.0 0.00 0.00 0.00 87 1010.2
20260506164543 12 188 0.0 0.0 0.00 0.00 0.00 88 1010.4
20260506163048 11 189 0.0 0.0 0.00 0.00 0.00 88 1010.8
20260506161536 11 178 0.0 0.0 0.00 0.00 0.00 89 1010.9
20260506160025 11 189 0.0 0.0 0.00 0.00 0.00 89 1011.2
20260506154507 11 192 0.0 0.0 0.00 0.00 0.00 89 1011.2
20260506153009 11 161 0.0 0.0 0.00 0.00 0.00 88 1011.4
20260506151548 11 177 0.0 0.0 0.00 0.00 0.00 88 1011.6
20260506150048 11 182 0.0 0.0 0.00 0.00 0.00 87 1011.5
20260506144530 11 205 0.0 0.0 0.00 0.00 0.00 88 1011.9
20260506143030 11 189 0.0 0.0 0.00 0.00 0.00 88 1011.8
20260506141512 11 186 0.0 0.0 0.00 0.00 0.00 85 1011.8
20260506140012 12 223 0.0 0.0 0.00 0.00 0.00 85 1011.5
20260506134617 13 233 0.0 0.0 0.00 0.00 0.00 85 1011.4
20260506133054 13 227 0.0 0.0 0.00 0.00 0.00 85 1011.9
20260506131600 13 234 0.0 0.0 0.00 0.00 0.00 86 1012.2
20260506130040 13 224 0.0 0.0 0.00 0.00 0.00 87 1012.0
20260506124538 12 232 0.0 0.0 0.00 0.00 0.00 87 1012.1
20260506123044 12 238 0.0 0.0 0.00 0.00 0.00 88 1012.2
20260506121538 12 181 0.0 0.0 0.00 0.00 0.00 88 1012.2
20260506120036 12 222 0.0 0.0 0.00 0.00 0.00 88 1012.1
20260506114543 11 207 0.0 0.0 0.00 0.00 0.00 88 1012.2
20260506113037 12 235 0.0 0.0 0.00 0.00 0.00 89 1012.3
20260506111516 11 217 0.0 14.5 0.00 0.00 0.00 89 1012.3
20260506110017 11 231 0.0 0.0 0.00 0.00 0.00 89 1012.1
20260506104605 12 225 1.6 24.1 0.00 0.00 0.00 89 1012.2
20260506103105 11 210 0.0 0.0 0.00 0.00 0.00 89 1012.0
20260506101541 12 170 0.0 0.0 0.00 0.00 0.00 90 1011.7
20260506100039 12 219 0.0 0.0 0.00 0.00 0.00 89 1011.9
20260506094521 12 176 0.0 0.0 0.00 0.00 0.00 89 1012.0
20260506093020 12 229 0.0 0.0 0.00 0.00 0.00 89 1011.9
20260506091503 12 161 0.0 0.0 0.00 0.00 0.00 89 1012.2
20260506090001 12 222 0.0 0.0 0.00 0.00 0.00 89 1012.1
20260506084550 12 213 0.0 0.0 0.00 0.00 0.00 89 1012.4
20260506083108 12 252 0.0 0.0 0.00 0.00 0.00 89 1012.5
20260506081551 12 241 0.0 0.0 0.00 0.00 0.00 89 1012.5
20260506073046 12 222 0.0 0.0 0.00 0.00 0.00 89 1012.5
20260506071550 11 236 0.0 0.0 0.00 0.00 0.00 89 1012.4
20260506061507 11 230 0.0 0.0 0.00 0.00 0.00 88 1012.4
20260506044518 12 224 0.0 0.0 0.00 0.00 0.00 87 1012.8
20260506043015 11 227 0.0 0.0 0.00 0.00 0.00 87 1012.8
20260506041513 12 245 0.0 0.0 0.00 0.00 0.00 88 1013.0
20260506040016 11 239 0.0 0.0 0.00 0.00 0.00 87 1013.0
20260506034512 12 268 0.0 0.0 0.00 0.00 0.00 87 1012.9
20260506033015 11 247 0.0 0.0 0.00 0.00 0.00 87 1013.1
20260506031508 11 274 0.0 0.0 0.00 0.00 0.00 87 1013.0
20260506030007 11 263 0.0 0.0 0.00 0.00 0.00 87 1012.9
20260506024558 11 264 0.0 0.0 0.00 0.00 0.00 86 1012.7
20260506023050 11 268 0.0 0.0 0.00 0.00 0.00 86 1012.6
20260506021528 11 216 0.0 0.0 0.00 0.00 0.00 85 1012.4
20260506020026 11 236 0.0 0.0 0.00 0.00 0.00 85 1012.4
20260506014512 11 234 0.0 0.0 0.00 0.00 0.00 85 1012.2
20260506013006 11 247 0.0 0.0 0.00 0.00 0.00 84 1012.2
20260506011633 11 264 0.0 0.0 0.00 0.00 0.00 84 1012.1
20260506010048 11 249 0.0 0.0 0.00 0.00 0.00 84 1012.0
20260506004559 11 245 0.0 0.0 0.00 0.00 0.00 84 1011.7
20260506003032 11 241 0.0 0.0 0.00 0.00 0.00 84 1011.5
20260506001530 11 240 0.0 0.0 0.00 0.00 0.00 84 1011.0
20260506000046 12 232 0.0 0.0 0.00 0.00 0.00 83 1010.8
20260505234539 12 231 0.0 11.3 0.00 0.00 0.00 83 1010.8
20260505233029 12 219 0.0 9.7 0.00 0.00 0.00 83 1011.0
20260505231527 12 234 0.0 0.0 0.00 0.00 0.00 83 1010.9
20260505230048 12 234 0.0 0.0 0.00 0.00 0.00 82 1010.8
20260505224535 12 226 0.0 0.0 0.00 0.00 0.00 84 1010.6
20260505223007 12 244 0.0 0.0 0.00 0.00 0.00 83 1010.4
20260505221506 12 201 0.0 0.0 0.00 0.00 0.00 84 1010.3
20260505220049 12 244 0.0 0.0 0.00 0.00 0.00 84 1010.5
20260505214547 12 257 0.0 0.0 0.00 0.00 0.00 84 1010.6
20260505213028 11 233 0.0 0.0 0.00 0.00 0.00 85 1010.6
20260505211532 11 152 0.0 0.0 0.00 0.00 0.00 86 1010.3
20260505210010 11 191 0.0 0.0 0.00 0.00 0.00 86 1010.4
20260505204509 11 192 0.0 0.0 0.00 0.00 0.00 86 1010.2
20260505203059 11 184 0.0 0.0 0.00 0.00 0.00 86 1010.5